Terminal Aerodrome Forecast
Issued by NWS

Home | Current Version | Previous Version | Graphics & Text | Print | Product List | Glossary On
Versions: 1 2 3 4 5 6 7 8 9 10 11 12 13 14 15 16 17 18
101
FTUS43 KMPX 091609 AAA
TAFAXN
TAF AMD
KAXN 091609Z 0916/1012 33007KT 6SM -SN BKN017
     FM091800 32007KT P6SM SCT100 BKN200
     FM092300 23010KT P6SM OVC090
     FM100500 30012KT P6SM BKN250=

USA.gov is the U.S. government's official web portal to all federal, state and local government web resources and services.